Lid_Strength_Index
1 -0 -0 -1 -1 -1 -1 -1 -1 -1 -1 1 2 3 3 2 2 4 8 5 2 -1 -1 2 2 2 2 4 3 3 9 10 9 9 8 6 6 4 3 5 4 4 4 3 2
2 1 0 -0 -0 -1 -1 -1 -1 -1 -1 -1 0 2 2 3 5 7 4 2 2 1 3 5 5 4 4 4 4 6 8 9 6 6 7 6 6 5 5 5 5 4 3 2 2
1 2 1 0 0 -0 -1 -1 -1 -1 -1 -2 -1 -0 2 3 7 9 2 3 2 2 3 3 4 5 6 4 5 5 8 6 6 6 5 6 6 5 6 7 5 5 4 3 3
1 2 2 1 1 0 -0 -1 -1 -1 -1 -2 -2 -2 -1 3 11 5 4 2 0 2 5 5 6 7 8 7 5 7 6 5 5 5 6 7 5 6 5 5 3 3 3 3 3
1 1 2 2 1 1 1 0 -0 -1 -1 -2 -2 -1 2 5 5 2 2 0 1 3 6 6 8 8 9 8 7 7 7 5 5 6 6 5 6 6 6 4 3 3 3 3 3
1 1 1 1 2 1 1 1 0 -0 -1 -1 -1 -1 4 8 2 2 2 1 1 4 5 4 6 5 7 7 7 6 6 6 5 6 5 7 6 5 5 4 4 4 4 3 3
1 1 1 1 1 2 1 1 1 0 -1 -1 -1 0 5 5 1 2 2 2 1 3 6 4 3 4 6 7 5 6 8 6 6 6 6 6 8 7 4 4 4 4 4 3 3
0 0 1 1 1 1 1 1 1 0 -0 -1 -1 1 6 1 0 3 2 2 0 1 3 2 1 3 5 4 6 7 8 11 7 6 6 6 10 7 4 4 5 4 4 3 3
0 -0 0 1 1 1 1 1 1 0 -0 -1 1 3 7 0 3 2 2 4 2 2 1 1 2 5 5 8 9 8 12 11 10 6 7 8 10 7 5 5 5 4 4 4 3
-0 -0 0 0 1 1 1 1 1 0 1 0 1 6 6 6 3 2 1 3 4 4 4 5 6 8 8 10 14 12 12 11 11 9 8 8 9 7 6 5 6 5 5 5 4
-0 0 0 -0 0 1 2 2 5 6 3 6 7 7 6 4 2 3 2 3 4 5 9 7 10 12 11 9 10 11 11 11 10 8 9 9 10 8 7 6 6 6 6 6 5
-1 -0 -0 -0 -0 0 1 5 5 3 7 4 5 5 4 4 7 5 2 6 7 10 8 9 12 10 9 9 10 11 13 12 10 9 9 10 11 9 8 8 7 6 6 6 5
-1 -1 -1 -1 -0 1 3 4 1 2 8 6 4 6 5 4 7 7 5 5 8 9 9 11 10 9 10 11 11 11 12 13 13 10 9 10 12 10 8 8 7 6 6 5 5
-1 -1 -1 -1 2 2 4 2 1 2 12 10 7 6 5 4 8 4 4 5 8 10 9 10 8 10 11 12 11 13 10 11 12 13 15 10 16 12 10 10 8 7 7 6 5
-1 -1 -2 -1 2 4 2 1 -0 3 19 8 7 2 4 7 7 7 4 6 9 9 9 11 10 11 11 11 10 12 10 11 11 12 13 14 15 14 11 11 10 8 7 6 6
-2 -1 -1 -0 0 1 1 1 2 13 18 12 8 9 9 8 8 6 6 5 6 8 8 9 8 8 10 9 9 9 10 11 11 12 16 14 14 15 12 11 10 9 8 6 5
-2 -2 -1 -1 3 -1 -0 3 13 17 10 13 12 9 9 11 10 9 10 11 13 15 14 11 10 9 8 11 9 10 12 17 18 18 18 13 14 14 11 10 10 9 8 6 5
-2 -2 -1 -1 -2 -1 1 9 17 12 12 9 9 9 12 10 10 11 11 13 10 10 12 15 17 11 9 10 12 11 11 15 19 18 16 12 16 14 10 9 8 8 8 7 6
-1 -0 0 -0 -2 -0 6 14 14 12 9 10 9 12 13 11 11 11 12 12 10 9 14 15 14 9 8 8 9 11 14 10 14 14 16 14 13 10 9 9 9 8 8 7 6
1 2 2 -1 -1 2 9 11 10 8 7 8 13 11 14 13 13 13 13 9 10 8 7 10 14 9 9 7 8 9 8 15 14 19 19 16 15 14 11 11 10 9 8 7 7
1 6 1 -1 0 7 12 11 9 7 7 10 11 12 13 13 12 13 12 9 8 8 8 9 11 12 10 12 12 11 13 12 11 13 16 18 16 10 10 9 9 8 7 6 8
3 9 1 -0 9 8 11 9 7 8 7 9 9 10 11 11 13 13 12 9 6 7 11 9 11 15 13 9 8 9 11 11 15 16 14 14 14 8 8 8 8 8 6 6 7
7 6 1 2 12 11 9 9 8 9 9 10 10 8 8 10 14 12 11 7 6 8 10 9 14 17 15 12 10 12 10 10 11 11 15 17 15 8 8 8 7 7 6 6 7
6 11 6 5 6 9 10 10 10 7 8 8 9 9 10 10 9 12 12 9 7 7 7 8 12 15 16 13 11 14 12 11 11 16 15 14 12 10 8 8 7 6 5 6 8
5 9 7 10 9 8 9 9 11 11 8 7 9 10 10 12 11 11 10 9 8 7 8 9 14 12 12 11 10 11 12 12 13 13 15 13 12 9 7 7 6 6 6 7 8
8 9 7 8 8 9 9 10 10 9 9 10 11 9 9 11 10 11 10 9 11 8 10 8 14 12 15 11 11 13 11 11 11 12 12 12 12 7 7 5 6 6 7 8 8
5 4 5 8 8 9 10 9 9 8 7 7 8 9 9 9 7 7 7 7 9 10 11 11 13 15 17 12 13 16 12 11 11 10 11 14 10 7 7 7 6 6 7 8 8